Blackpool, United Kingdom

1:54 AM BST on September 29, 2016 (GMT +0100)
Blackpool

Weather History for EGNH - October, 2013

Change the Weather History Date:

Wednesday, October 9, 2013

  Actual Average Record
Temperature  
Mean Temperature 53 °F -  
Max Temperature 55 °F 56 °F 61 °F (2015)
Min Temperature 50 °F 48 °F 36 °F (2012)
Degree Days  
Heating Degree Days 12    
Growing Degree Days 3 (Base 50)    
Moisture  
Dew Point 44 °F    
Average Humidity 68    
Maximum Humidity 82    
Minimum Humidity 49    
Precipitation  
Precipitation 0.00 in - - ()
Sea Level Pressure  
Sea Level Pressure 30.07 in    
Wind  
Wind Speed 18 mph ()    
Max Wind Speed 30 mph    
Max Gust Speed 41 mph    
Visibility 6.1 miles    
Events Rain    
Averages and records for this station are not official NWS values.
T = Trace of Precipitation, MM = Missing Value Source: Averaged Metar Reports

Daily Weather History Graph

Daily Weather History Graph

Search for Another Location

Airport or City:

Trip Planner

Search our weather history database for the weather conditions in past years. The results will help you decide how hot, cold, wet, or windy it might be!

Date:

Astronomy

Oct. 09, 2013 Rise Set
Actual Time 7:28 AM BST 6:29 PM BST
Civil Twilight 6:53 AM BST 7:04 PM BST
Nautical Twilight 6:12 AM BST 7:44 PM BST
Astronomical Twilight 5:31 AM BST 8:26 PM BST
Moon 12:45 PM BST (10/9) 9:13 PM BST (10/9)
Length of Visible Light 12h 10m
Length of Day
11h 00m
Waxing Crescent, 23% of the Moon is Illuminated
Oct 9
Waxing Crescent
Oct 12
First Quarter
Oct 19
Full
Oct 27
Last Quarter
Nov 3
New

Hourly Weather History & Observations

Time (BST) Temp. Dew Point Humidity Pressure Visibility Wind Dir Wind Speed Gust Speed Precip Events Conditions
12:50 AM 56 °F 47 °F 64%  in - WNW 13.8 mph - -  
6:20 AM 55.4 °F 48.2 °F 77% 30.15 in 6.2 mi West 15.0 mph - N/A   Mostly Cloudy
6:50 AM 54 °F 48 °F 74%  in - WNW 17.3 mph - -  
6:50 AM 55.4 °F 48.2 °F 77% 30.15 in 6.2 mi West 15.0 mph - N/A   Mostly Cloudy
7:20 AM 55.4 °F 48.2 °F 77% 30.15 in 6.2 mi West 15.0 mph - N/A   Mostly Cloudy
7:50 AM 55.4 °F 48.2 °F 77% 30.12 in 6.2 mi West 15.0 mph - N/A   Mostly Cloudy
8:20 AM 55.4 °F 46.4 °F 72% 30.12 in 6.2 mi West 17.3 mph - N/A   Mostly Cloudy
8:50 AM 55.4 °F 46.4 °F 72% 30.12 in 6.2 mi West 17.3 mph - N/A   Mostly Cloudy
9:20 AM 55.4 °F 46.4 °F 72% 30.12 in 6.2 mi West 18.4 mph - N/A   Scattered Clouds
9:50 AM 54 °F 47 °F 70%  in - West 21.9 mph - -  
9:50 AM 55.4 °F 48.2 °F 77% 30.09 in 6.2 mi West 19.6 mph - N/A   Scattered Clouds
10:20 AM 55.4 °F 48.2 °F 77% 30.09 in 6.2 mi West 19.6 mph - N/A   Scattered Clouds
10:50 AM 55.4 °F 48.2 °F 77% 30.09 in 6.2 mi West 18.4 mph - N/A   Scattered Clouds
11:20 AM 55.4 °F 48.2 °F 77% 30.09 in 6.2 mi West 23.0 mph - N/A   Scattered Clouds
11:50 AM 55.4 °F 48.2 °F 77% 30.06 in 6.2 mi West 24.2 mph - N/A   Scattered Clouds
12:20 PM 55.4 °F 50.0 °F 82% 30.06 in 4.3 mi West 26.5 mph - N/A Rain Rain Showers
12:50 PM 55 °F 49 °F 73%  in - WNW 23.0 mph - -  
12:50 PM 55.4 °F 48.2 °F 77% 30.06 in 6.2 mi WNW 23.0 mph - N/A   Scattered Clouds
1:20 PM 53.6 °F 46.4 °F 77% 30.04 in 6.2 mi WNW 27.6 mph 40.3 mph N/A Rain Light Rain Showers
1:50 PM 55.4 °F 42.8 °F 63% 30.04 in 6.2 mi NW 28.8 mph 40.3 mph N/A   Scattered Clouds
2:20 PM 53.6 °F 44.6 °F 72% 30.04 in 6.2 mi WNW 25.3 mph 38.0 mph N/A   Scattered Clouds
2:50 PM 53.6 °F 41.0 °F 62% 30.06 in 6.2 mi NW 29.9 mph 41.4 mph N/A   Scattered Clouds
3:20 PM 53.6 °F 39.2 °F 58% 30.04 in 6.2 mi NW 24.2 mph - N/A   Scattered Clouds
3:50 PM 53 °F 39 °F 49%  in - NW 26.5 mph - -  
3:50 PM 53.6 °F 39.2 °F 58% 30.04 in 6.2 mi NW 26.5 mph - N/A   Partly Cloudy
4:20 PM 51.8 °F 41.0 °F 67% 30.04 in 6.2 mi NW 25.3 mph 39.1 mph N/A Rain Rain Showers
4:50 PM 53.6 °F 39.2 °F 58% 30.04 in 6.2 mi NW 24.2 mph - N/A   Partly Cloudy
5:20 PM 53.6 °F 39.2 °F 58% 30.04 in 6.2 mi NW 24.2 mph - N/A   Scattered Clouds
5:50 PM 53.6 °F 39.2 °F 58% 30.04 in 6.2 mi WNW 25.3 mph - N/A   Scattered Clouds
6:20 PM 53.6 °F 41.0 °F 62% 30.06 in 6.2 mi WNW 24.2 mph - N/A   Scattered Clouds
6:50 PM 52 °F 41 °F 57%  in - NW 24.2 mph - -  
6:50 PM 53.6 °F 39.2 °F 58% 30.06 in 6.2 mi NW 23.0 mph - N/A   Mostly Cloudy
7:20 PM 53.6 °F 39.2 °F 58% 30.04 in 6.2 mi NW 26.5 mph 38.0 mph N/A   Scattered Clouds
7:50 PM 53.6 °F 41.0 °F 62% 30.04 in 6.2 mi NW 26.5 mph - N/A   Scattered Clouds
8:20 PM 51.8 °F 41.0 °F 67% 30.04 in 6.2 mi NW 28.8 mph - N/A   Partly Cloudy
8:50 PM 51.8 °F 41.0 °F 67% 30.04 in 6.2 mi NW 27.6 mph - N/A   Mostly Cloudy
9:50 PM 50 °F 41 °F 61%  in - North 18.4 mph - -